Flag for Tanzania Weather past 2 weeks in Dodoma, Tanzania

Now
82 °F

Scattered clouds.


Feels Like: 83 °F
Forecast: 62 / 80 °F
Wind: 16 mph from East

Location: Dodoma Airport


UV Index: 10 (Very high)

Visibility: N/A


Pressure: 29.98 "Hg

Humidity: 51%

Dew point: 63 °F

Location of DodomaLocation

Historic Weather in Dodoma

°F

Dodoma temperature yesterday

Maximum temperature yesterday: 82 °F (at 2:00 PM)
Minimum temperature yesterday: 68 °F (at 3:00 AM)
Average temperature yesterday: 73 °F

Past Weeks' High & Low Weather Summary

 TemperatureHumidityPressure
High84 °F (Apr 20, 4:00 PM)100% (Apr 11, 11:00 PM)30.15 "Hg (Apr 11, 11:00 PM)
Low64 °F (Apr 10, 6:00 AM)42% (Apr 18, 2:00 PM)29.95 "Hg (Apr 17, 4:00 PM)
Average73 °F70%30.06 "Hg
* Reported Apr 8 10:00 PM — Apr 23 5:00 PM, Dodoma, Weather by CustomWeather, © 2014

Note: Actual official high and low records may vary slightly from our data, if they occured in-between our weather recording intervals... More about our weather records

Advertising

Historic Weather Conditions — Data for Previous 24 hours

 ConditionsComfort  
Time TempWeatherWind HumidityBarometerVisibility
5:00 PM
Apr 23
82 °FScattered clouds.16 mph51%29.98 "HgN/A
4:00 PM84 °FScattered clouds.16 mph45%29.95 "HgN/A
3:00 PM82 °FScattered clouds.12 mph48%29.98 "HgN/A
2:00 PM82 °FScattered clouds.12 mph51%30.01 "HgN/A
1:00 PM79 °FPartly sunny.12 mph54%30.07 "HgN/A
12:00 PM77 °FPartly sunny.12 mph61%30.09 "HgN/A
11:00 AM75 °FPartly sunny.14 mph65%30.09 "HgN/A
10:00 AM75 °FPartly sunny.16 mph65%30.09 "HgN/A
8:00 AM68 °FPartly sunny.14 mph88%30.09 "HgN/A
7:00 AM66 °FBroken clouds.12 mph88%30.07 "HgN/A
12:00 AM70 °FPartly cloudy.6 mph83%30.07 "HgN/A
10:00 PM
Apr 22
70 °FPartly cloudy.17 mph78%30.07 "HgN/A
9:00 PM70 °FPartly cloudy.12 mph83%30.07 "HgN/A
8:00 PM70 °FPartly cloudy.12 mph83%30.04 "HgN/A
7:00 PM73 °FPartly cloudy.12 mph69%30.01 "HgN/A
6:00 PM79 °FPartly sunny.12 mph54%30.01 "HgN/A
Weather by CustomWeather, © 2014

See weather overview